Lid_Strength_Index
3 3 3 3 3 3 2 2 2 2 2 2 2 2 2 2 2 3 6 1 0 -1 -1 1 1 2 2 5 4 4 12 13 12 11 10 7 8 6 5 7 6 5 6 4 2
3 3 3 3 2 2 2 2 2 2 2 2 2 2 2 2 4 6 2 -1 -3 -2 1 3 5 4 6 6 6 8 12 12 8 8 9 8 7 6 8 8 8 7 4 3 3
2 2 2 2 2 1 1 1 2 2 2 2 2 2 2 2 6 7 -1 -1 -3 -2 1 2 3 5 8 7 7 8 12 8 7 7 6 7 7 7 8 10 7 8 6 4 4
2 2 1 1 1 1 1 1 1 1 1 0 -0 -1 -0 2 13 2 -2 -3 -2 -1 1 3 4 7 9 10 7 11 8 8 7 6 7 8 7 8 8 8 5 5 4 4 4
1 1 1 1 1 1 0 -0 -1 -1 -1 -1 -1 -2 1 5 5 1 -2 -1 -1 1 3 5 6 7 10 9 8 10 8 7 7 6 7 6 7 8 8 6 5 4 4 5 4
-0 0 0 1 1 0 -1 -1 -2 -1 -1 -1 -1 -2 3 8 0 0 1 0 1 2 3 4 5 5 8 8 9 8 8 8 7 7 6 8 7 8 7 5 6 5 5 5 4
-0 0 0 0 0 -1 -1 -1 -1 -1 -1 -1 -1 0 4 5 0 0 1 1 0 2 4 3 3 6 6 9 7 8 11 9 9 8 8 7 10 9 6 6 7 6 6 5 4
-0 0 0 -0 -1 -1 -1 -1 -1 -1 -1 -1 -1 1 6 0 1 1 0 1 1 2 2 2 2 5 7 6 8 11 10 14 10 9 8 8 13 8 6 7 8 7 6 6 5
0 -0 -0 -1 -1 -1 -1 -1 -1 -1 -1 -1 2 3 7 -1 2 1 0 3 2 2 2 2 3 7 7 11 13 12 16 15 13 8 9 9 12 8 6 7 8 7 7 6 5
0 -0 -1 -1 -2 -2 -2 -1 -1 -1 -0 -0 1 6 4 5 3 2 1 1 4 4 5 6 7 10 10 12 18 16 15 14 14 11 10 11 11 9 7 7 8 7 7 6 5
-1 -1 -2 -2 -2 -1 -0 2 6 7 4 7 6 6 4 3 2 3 1 3 4 6 11 8 12 14 12 11 11 12 14 14 12 10 11 11 11 9 8 8 8 8 7 6 6
-1 -2 -2 -2 -2 -1 2 5 4 4 8 4 4 4 3 2 6 4 2 6 8 11 9 11 14 10 9 10 11 12 14 14 12 10 11 12 12 9 8 8 8 8 7 7 6
-1 -2 -2 -2 -2 1 3 3 1 2 9 7 5 5 4 4 7 6 4 6 9 11 11 13 11 8 10 11 13 14 14 14 14 12 10 12 14 12 8 8 7 7 6 6 6
-2 -2 -2 -2 1 3 4 1 1 3 15 11 7 6 4 4 8 3 3 6 8 11 11 11 9 10 11 12 12 15 11 12 13 15 18 12 19 13 10 10 9 8 7 7 6
-1 -1 -2 -2 3 4 2 1 1 5 25 10 7 2 4 7 7 6 3 6 10 10 11 13 12 12 13 12 10 13 10 12 13 14 15 15 17 14 10 11 10 8 7 7 6
-0 -1 -2 0 2 1 1 1 4 15 22 12 7 8 8 7 7 6 6 5 6 10 10 11 8 10 11 9 10 9 12 12 13 15 19 16 17 16 13 11 10 8 7 7 6
-0 -1 -1 -0 4 1 2 5 15 19 11 14 11 8 9 10 9 8 9 11 12 15 14 12 11 9 9 12 10 11 14 19 20 20 21 15 17 15 11 9 9 8 8 7 6
-1 -1 0 1 1 2 4 12 22 17 17 9 9 9 12 10 10 10 10 13 11 12 14 16 18 12 9 12 13 13 14 19 23 22 20 15 19 15 9 10 8 8 7 6 8
-0 3 3 3 2 2 9 19 19 17 10 11 11 16 14 10 11 11 12 12 11 12 14 16 15 10 10 9 10 13 16 12 17 16 19 17 15 11 10 9 9 8 8 9 9
5 5 5 2 2 5 13 15 17 10 9 12 18 15 19 15 13 13 12 10 10 9 9 12 16 11 11 9 9 12 10 16 16 22 23 19 18 16 13 11 10 9 10 9 10
6 10 4 3 4 10 18 19 13 8 8 14 17 17 16 15 13 14 12 10 8 9 9 10 13 14 11 13 14 13 15 14 14 16 21 21 18 15 12 11 10 10 10 11 12
8 16 5 4 13 11 20 17 8 10 7 9 10 13 17 16 17 13 13 10 8 8 11 10 12 17 15 12 10 11 13 13 18 19 16 17 17 13 13 10 10 11 11 12 12
11 10 6 6 19 17 11 13 11 11 9 10 11 11 11 16 17 12 10 8 8 9 10 9 14 20 16 13 11 13 12 12 12 14 17 19 17 12 10 10 10 11 11 12 12
11 16 13 9 11 15 16 17 16 9 10 8 9 9 10 14 12 16 11 8 8 9 7 8 13 15 18 16 13 15 13 12 13 17 17 16 15 13 11 11 11 11 11 12 12
11 12 12 19 16 13 11 13 14 12 9 8 10 13 11 16 16 13 11 10 9 8 9 9 14 14 13 12 12 13 13 13 14 14 16 14 15 13 11 11 11 11 11 11 11
11 13 12 12 13 13 12 13 12 12 11 13 12 14 9 15 14 13 11 11 11 10 11 9 14 13 14 12 13 14 13 13 13 13 13 13 15 12 10 10 10 11 11 11 11
10 10 12 14 12 15 14 13 12 11 10 10 11 13 15 12 10 9 9 9 10 12 12 12 13 15 18 14 14 19 15 13 12 11 12 14 14 12 11 10 10 10 10 10 9